Location: Lane
(33.5226°N, 79.8788°W)
Time: 08:07:18
(UTC+00:00)

Explorer 7 - Pass Details

Date: 06 October 2022
Orbit: 481 x 665 km, 50.3° (Epoch: 28 November)

Event Time Altitude Azimuth Distance (km) Brightness Sun altitude
Rises 19:47:26 0° 320° (NW) 2,959 10.6 35.8°
Reaches altitude 10° 19:50:16 10° 335° (NNW) 2,021 9.7 35.3°
Maximum altitude 19:53:54 22° 26° (NNE) 1,352 8.6 34.7°
Drops below altitude 10° 19:57:23 10° 78° (ENE) 1,931 9.2 34.1°
Sets 20:00:02 0° 94° (E) 2,792 10.0 33.7°
